Flag for Canada Weather past 2 weeks in Barrie, Ontario, Canada

Now
90 °F

Sunny.


Feels Like: 91 °F
Forecast: N/A
Wind: 9 mph from North

Location: Borden

Current Time: Jul 28, 2015 at 5:54:07 PM

Latest Report: Jul 28, 2015 at 5:00 PM


Visibility: 9 mi

Pressure: 29.99 "Hg

Humidity: 43%

Dew point: 64 °F

Location of BarrieLocation

Historic Weather in Barrie — Graph

°F

Barrie temperature yesterday

Maximum temperature yesterday: 91 °F (at 3:00 PM)
Minimum temperature yesterday: 55 °F (at 5:00 AM)
Average temperature yesterday: 73 °F

Past Weeks' High & Low Weather Summary

 TemperatureHumidityPressure
High91 °F (Jul 27, 3:00 PM)100% (Jul 14, 3:00 AM)30.14 "Hg (Jul 14, 3:00 AM)
Low41 °F (Jul 16, 5:00 AM)34% (Jul 23, 2:00 PM)29.50 "Hg (Jul 14, 3:00 PM)
Average69 °F73%29.86 "Hg
* Reported Jul 13 4:00 PM — Jul 28 4:00 PM, Barrie, Weather by CustomWeather, © 2015

Note: Actual official high and low records may vary slightly from our data, if they occured in-between our weather recording intervals... More about our weather records

Advertising

Barrie weather history for previous 24 hours

 ConditionsComfort  
Time TempWeatherWind HumidityBarometerVisibility
4:00 PM
Tue, Jul 28
90 °FPassing clouds.7 mph43%29.99 "Hg9 mi
3:00 PM88 °FPartly sunny.9 mph43%29.99 "Hg9 mi
2:00 PM91 °FPassing clouds.5 mph36%29.99 "Hg9 mi
1:00 PM90 °FSunny.9 mph38%30.01 "Hg9 mi
12:00 PM88 °FSunny.6 mph38%30.02 "Hg9 mi
11:00 AM86 °FSunny.No wind40%30.03 "Hg9 mi
10:00 AM82 °FSunny.5 mph45%30.03 "Hg9 mi
9:00 AM75 °FSunny.3 mph61%30.04 "Hg9 mi
8:00 AM66 °FSunny.No wind78%30.04 "Hg9 mi
7:00 AM59 °FClear.No wind94%30.03 "Hg9 mi
6:00 AM55 °FClear.No wind100%30.02 "Hg9 mi
5:00 AM55 °FClear.No wind100%30.02 "Hg9 mi
4:00 AM55 °FClear.No wind94%30.02 "Hg9 mi
3:00 AM57 °FClear.No wind100%30.03 "Hg9 mi
2:04 AM59 °FClear.No wind100%30.04 "Hg1 mi
1:59 AM59 °FClear.No wind94%30.04 "Hg1 mi
1:00 AM61 °FClear.No wind100%30.03 "Hg5 mi
12:00 AM63 °FClear.5 mph94%30.03 "Hg9 mi
11:00 PM
Mon, Jul 27
66 °FClear.2 mph88%30.02 "Hg9 mi
10:00 PM70 °FClear.No wind78%30.01 "Hg9 mi
9:00 PM73 °FSunny.3 mph74%29.99 "Hg9 mi
8:00 PM81 °FSunny.3 mph54%29.98 "Hg9 mi
7:00 PM84 °FSunny.9 mph45%29.98 "Hg9 mi
6:00 PM86 °FSunny.8 mph43%29.98 "Hg9 mi
5:00 PM88 °FPartly sunny.5 mph40%29.98 "Hg9 mi
Weather by CustomWeather, © 2015

See weather overviewHow to use our weather pages